Weather History for Rogers, AR

Change the Weather History Date:

Tuesday, July 2, 2013

  Actual Average Record
Temperature  
Mean Temperature 67 °F -  
Max Temperature 80 °F 82 °F 98 °F (2011)
Min Temperature 54 °F 65 °F 54 °F (2013)
Cooling Degree Days 2    
Growing Degree Days 17 (Base 50)    
Moisture  
Dew Point 50 °F    
Average Humidity 57    
Maximum Humidity 93    
Minimum Humidity 29    
Precipitation  
Precipitation 0.00 in - - ()
Sea Level Pressure  
Sea Level Pressure 30.06 in    
Wind  
Wind Speed 4 mph (North)    
Max Wind Speed 14 mph    
Max Gust Speed 20 mph    
Visibility 10 miles    
Events      
Averages and records for this station are not official NWS values.
T = Trace of Precipitation, MM = Missing Value Source: NWS Daily Summary

Daily Weather History Graph

Daily Weather History Graph

Search for Another Location

Airport:

Trip Planner

Search our weather history database for the weather conditions in past years. The results will help you decide how hot, cold, wet, or windy it might be!

Date:

Astronomy

Jul. 02, 2013 Rise Set
Actual Time 6:02 AM CDT 8:38 PM CDT
Civil Twilight 5:32 AM CDT 9:08 PM CDT
Nautical Twilight 4:54 AM CDT 9:45 PM CDT
Astronomical Twilight 4:13 AM CDT 10:27 PM CDT
Moon 2:01 AM CDT (7/2) 3:56 PM CDT (7/2)
Length of Visible Light 15h 35m
Length of Day
14h 35m
Waning Crescent, 26% of the Moon is Illuminated
Jul 2
Waning Crescent
Jul 8
New
Jul 15
First Quarter
Jul 22
Full
Jul 29
Last Quarter

Hourly Weather History & Observations

Time (CDT) Temp. Dew Point Humidity Pressure Visibility Wind Dir Wind Speed Gust Speed Precip Events Conditions
12:57 AM 60.1 °F 53.1 °F 78% 30.04 in 10.0 mi Calm Calm - N/A   Clear
1:57 AM 57.9 °F 53.1 °F 84% 30.04 in 10.0 mi NW 3.5 mph - N/A   Clear
2:57 AM 57.0 °F 54.0 °F 89% 30.03 in 10.0 mi NNW 4.6 mph - N/A   Clear
3:57 AM 57.9 °F 54.0 °F 87% 30.03 in 10.0 mi Calm Calm - N/A   Clear
4:57 AM 54.0 °F 52.0 °F 93% 30.04 in 10.0 mi Calm Calm - N/A   Clear
5:57 AM 55.0 °F 52.0 °F 89% 30.06 in 10.0 mi Calm Calm - N/A   Clear
6:57 AM 54.0 °F 52.0 °F 93% 30.08 in 10.0 mi Calm Calm - N/A   Clear
9:57 AM 72.0 °F 53.1 °F 51% 30.09 in 10.0 mi NNW 8.1 mph - N/A   Clear
10:57 AM 75.0 °F 48.9 °F 40% 30.09 in 10.0 mi NNW 11.5 mph 16.1 mph N/A   Clear
11:57 AM 77.0 °F 48.9 °F 37% 30.09 in 10.0 mi NNW 9.2 mph 16.1 mph N/A   Clear
12:57 PM 77.0 °F 46.9 °F 34% 30.08 in 10.0 mi NNW 13.8 mph - N/A   Clear
1:57 PM 78.1 °F 48.0 °F 35% 30.07 in 10.0 mi Variable 6.9 mph - N/A   Clear
2:57 PM 80.1 °F 48.9 °F 34% 30.06 in 10.0 mi NNE 10.4 mph 16.1 mph N/A   Partly Cloudy
3:57 PM 80.1 °F 46.9 °F 31% 30.06 in 10.0 mi North 8.1 mph - N/A   Clear
4:57 PM 80.1 °F 45.0 °F 29% 30.06 in 10.0 mi NNE 10.4 mph - N/A   Clear
5:57 PM 79.0 °F 46.9 °F 32% 30.04 in 10.0 mi NNE 13.8 mph 19.6 mph N/A   Scattered Clouds
7:57 PM 75.0 °F 50.0 °F 41% 30.06 in 10.0 mi NNE 6.9 mph - N/A   Clear
8:57 PM 71.1 °F 51.1 °F 49% 30.06 in 10.0 mi NNE 4.6 mph - N/A   Clear
9:57 PM 68.0 °F 51.1 °F 55% 30.08 in 10.0 mi NE 3.5 mph - N/A   Clear
10:57 PM 66.9 °F 52.0 °F 59% 30.09 in 10.0 mi ENE 4.6 mph - N/A   Clear
11:57 PM 63.0 °F 52.0 °F 67% 30.08 in 10.0 mi Calm Calm - N/A   Clear